Location: Rowland
(34.5359°N, 79.2929°W)
Time: 15:18:58
(UTC+00:00)

A-11 Canister half - Visible Passes

Search period start: 03 October 2022 00:00
Search period end: 13 October 2022 00:00
Orbit: 1515 x 1684 km, 47.2° (Epoch: 02 October)

Date Brightness Start Highest point End Pass type
(mag) Time Alt. Az. Time Alt. Az. Time Alt. Az.
03 Oct 8.9 01:29:39 10° SW 01:39:31 85° NW 01:41:57 57° NE visible
03 Oct 10.5 03:36:26 10° W 03:40:12 24° WNW 03:40:12 24° WNW visible
03 Oct 9.0 07:59:48 67° ESE 07:59:48 67° ESE 08:07:35 10° ESE visible
03 Oct 9.6 09:58:05 21° W 10:02:29 31° SW 10:10:15 10° S visible
04 Oct 8.9 01:06:40 10° SW 01:16:34 89° NW 01:20:48 40° NE visible
04 Oct 10.2 03:13:19 10° W 03:19:02 33° WNW 03:19:02 33° WNW visible
04 Oct11.605:40:57E05:40:57E05:17:16WNWvisible
04 Oct 9.7 07:39:15 40° ESE 07:39:15 40° ESE 07:44:38 10° ESE visible
04 Oct 9.5 09:37:32 30° WSW 09:39:39 33° SW 09:47:37 10° S visible
05 Oct 8.9 00:43:43 10° SW 00:53:38 87° SE 00:59:30 28° NE visible
05 Oct 9.8 02:50:13 10° W 02:57:44 41° NW 02:57:44 41° NW visible
05 Oct 10.4 07:18:43 24° ESE 07:18:43 24° ESE 07:21:41 10° ESE visible
05 Oct 9.4 09:17:00 36° SW 09:17:00 36° SW 09:24:57 10° SSE visible
06 Oct 9.0 00:20:46 10° SW 00:30:42 82° SE 00:38:07 19° ENE visible
06 Oct 9.6 02:27:06 10° W 02:36:20 46° NNW 02:36:20 46° NNW visible
06 Oct 11.2 04:34:30 10° WNW 04:34:33 10° WNW 04:34:33 10° WNW visible
06 Oct 11.0 06:58:10 12° ESE 06:58:10 12° ESE 06:58:43 10° ESE visible
06 Oct 9.6 08:56:27 33° SSW 08:56:27 33° SSW 09:02:16 10° SSE visible
06 Oct 9.0 23:57:49 10° SW 00:07:45 78° SE 00:16:38 13° ENE visible
07 Oct 9.6 02:04:00 10° W 02:13:20 47° NNW 02:14:50 44° N visible
07 Oct 11.0 04:11:28 10° WNW 04:13:03 15° NW 04:13:03 15° NW visible
07 Oct 10.1 08:35:52 25° S 08:35:52 25° S 08:39:33 10° SSE visible
07 Oct 9.1 23:34:54 10° SW 23:44:50 74° SE 23:54:25 10° ENE visible
08 Oct 9.6 01:40:54 10° W 01:50:19 49° NNW 01:53:15 39° NNE visible
08 Oct 10.7 03:48:24 10° WNW 03:51:27 21° NW 03:51:27 21° NW visible
08 Oct 10.6 08:15:13 16° SSE 08:15:13 16° SSE 08:16:49 10° SSE visible
08 Oct 9.1 23:11:59 10° SW 23:21:54 70° SE 23:31:28 10° ENE visible
09 Oct 9.6 01:17:48 10° W 01:27:18 51° NNW 01:31:37 32° NE visible
09 Oct 10.5 03:25:20 10° WNW 03:29:48 26° NW 03:29:48 26° NW visible
10 Oct 9.6 00:54:43 10° W 01:04:17 53° NNW 01:09:55 26° NE visible
10 Oct 10.2 03:02:17 10° WNW 03:08:06 32° NNW 03:08:06 32° NNW visible
11 Oct 9.5 00:31:37 10° W 00:41:17 55° NNW 00:48:10 20° NE visible
11 Oct 10.0 02:39:11 10° WNW 02:46:21 36° NNW 02:46:21 36° NNW visible
12 Oct 9.5 00:08:32 10° WSW 00:18:16 57° NNW 00:26:24 15° NE visible
12 Oct 9.9 02:16:06 10° WNW 02:24:35 38° N 02:24:35 38° N visible
12 Oct 11.2 04:22:23 10° NW 04:22:46 11° NW 04:22:46 11° NW visible
